Location: Ash Swamp
(41.5170°N, 74.6157°W)
Time: 17:13:30
(UTC+00:00)

Cosmos 1908 Rocket - Pass Details

Date: 14 July 2020
Orbit: 605 x 633 km, 82.5° (Epoch: 04 August)

Event Time Altitude Azimuth Distance (km) Brightness Sun altitude
Exits shadow 07:57:27 19° 183° (S) 1,520 5.1 -15.3°
Maximum altitude 08:00:40 83° 97° (E) 643 3.6 -14.9°
Drops below altitude 10° 08:05:09 10° 10° (N) 2,020 7.1 -14.3°
Sets 08:07:24 0° 9° (N) 2,930 8.0 -14.0°
